Temperature
20 20 19 20 20 20 20 20 20 20 20 20 20 19 19 19 19 19 19 19 19 19 18 18 18 18 18 18 18 18 18 18 18 18 18 18 18 18 17 17 17 17 17
20 20 19 20 20 20 20 20 20 20 20 20 19 19 19 19 19 19 19 19 19 19 18 18 18 18 18 18 18 18 18 18 18 18 18 18 18 17 17 17 17 17 17
20 20 19 19 20 20 20 20 20 20 19 19 19 19 19 19 19 19 19 19 19 19 18 18 18 18 18 18 18 18 18 18 18 18 18 18 17 17 17 17 17 17 17
20 20 20 19 19 20 20 20 20 20 19 19 19 19 19 19 19 19 19 19 19 19 19 19 18 18 18 18 18 18 18 18 18 18 18 18 17 17 17 17 17 17 17
20 20 20 19 19 19 20 20 20 20 19 19 19 19 19 19 19 19 18 19 18 19 19 18 18 18 18 18 18 17 17 18 18 18 18 18 18 17 17 17 17 17 17
20 20 19 19 19 19 20 20 20 20 19 19 19 19 19 19 19 18 18 18 18 18 18 18 18 18 18 18 18 17 17 18 18 18 18 17 18 18 17 17 17 17 17
20 19 19 19 19 19 20 19 19 19 19 19 19 18 18 18 18 18 18 18 18 18 18 18 18 18 18 18 17 17 18 18 18 18 18 17 18 18 18 17 17 17 17
20 19 19 19 19 19 19 19 19 19 19 19 18 18 18 18 18 18 18 18 18 18 18 18 18 18 18 17 17 17 18 18 18 18 17 17 17 18 18 18 17 17 17
19 19 19 19 19 19 19 19 19 19 18 18 18 18 18 18 18 18 17 18 18 18 18 18 18 18 18 17 17 17 17 18 18 18 18 17 17 17 17 18 18 17 17
19 19 19 19 19 19 19 19 18 18 18 18 18 18 18 18 17 17 17 17 17 18 18 18 18 18 17 17 17 17 17 17 17 18 17 17 17 17 17 17 18 17 17
18 19 19 19 19 19 18 18 18 18 18 18 18 18 18 18 18 17 17 17 17 17 18 18 18 18 17 17 17 17 17 17 17 17 17 17 17 17 17 17 17 17 17
18 19 19 19 19 18 18 18 18 18 18 18 17 17 17 18 18 17 17 17 17 17 17 17 17 17 17 17 17 17 17 17 17 17 17 17 17 17 17 17 17 17 17
19 19 19 18 18 18 18 18 18 18 17 17 17 17 17 17 17 17 17 17 17 17 17 17 17 17 17 17 17 17 17 17 17 17 17 17 17 17 17 17 17 17 17
19 19 18 18 18 18 18 18 18 17 17 17 17 17 17 17 17 17 17 17 17 17 17 17 17 17 17 17 17 17 17 17 17 17 17 17 17 17 17 17 17 17 17
19 18 18 18 18 18 18 18 17 17 17 17 17 17 17 17 17 17 17 17 17 17 17 17 17 17 17 17 17 17 17 17 17 17 17 17 17 17 17 17 17 17 17
19 18 18 18 18 18 18 17 17 17 17 17 17 17 17 17 17 17 16 16 16 16 16 16 16 16 16 16 16 16 16 17 17 17 17 17 17 17 17 17 17 17 17
18 18 18 18 18 18 17 17 17 17 17 16 16 16 16 16 16 16 16 16 15 15 16 16 16 16 16 16 16 16 16 16 16 16 16 16 16 17 17 16 16 17 17
18 18 18 18 18 17 17 17 17 17 16 16 16 16 16 16 15 15 15 15 15 15 15 15 15 15 15 15 15 16 16 16 16 16 16 16 16 16 16 16 16 16 16
18 18 18 18 18 17 17 17 17 16 16 16 16 15 15 15 15 15 15 15 15 15 15 14 14 15 15 15 15 15 15 15 15 16 16 16 16 16 16 16 16 16 16
18 18 18 18 18 17 17 17 17 16 16 16 15 15 15 15 15 14 14 14 14 14 14 14 14 14 14 14 15 15 15 15 15 15 16 16 16 16 16 16 16 16 16
17 17 18 18 18 17 17 17 17 16 16 16 15 15 15 14 14 14 14 14 14 14 14 14 14 14 14 14 14 15 15 15 15 15 15 16 16 16 16 16 16 16 16
17 18 18 18 18 18 17 17 17 16 16 16 15 15 15 14 14 14 14 14 13 13 13 13 13 13 13 14 14 14 14 14 14 15 15 15 15 16 16 16 16 16 16
17 18 18 18 18 18 17 17 17 16 16 16 15 15 15 14 14 14 13 13 13 13 13 13 13 13 13 13 13 14 14 14 14 14 14 15 15 15 15 15 16 16 16
18 18 18 18 18 18 17 17 17 17 16 16 15 15 14 14 14 14 13 13 13 13 13 13 13 13 13 13 13 13 13 13 14 14 14 14 14 14 15 15 15 15 15
18 18 18 18 18 18 18 17 17 17 16 16 15 15 15 14 14 14 13 13 13 13 12 12 12 12 12 12 12 12 12 12 13 13 13 14 14 14 14 14 15 15 15
18 18 18 18 18 18 18 17 17 17 16 16 16 15 15 14 14 14 13 13 13 12 12 12 12 12 12 12 12 12 12 12 12 12 12 13 13 14 14 14 14 14 15
Wind_Speed
7 10 17 17 18 19 19 20 20 19 18 18 17 17 16 15 15 14 13 12 11 10 10 10 9 9 9 10 9 8 8 8 8 8 9 10 11 14 16 17 17 17 19
10 14 17 17 18 18 18 19 19 18 17 17 16 15 15 14 13 12 12 11 10 10 9 9 9 9 9 9 9 8 8 7 8 9 10 11 13 15 16 17 17 16 18
12 14 17 17 17 17 18 18 17 17 16 15 15 14 13 12 12 11 10 10 9 9 9 9 9 9 8 9 8 8 8 8 8 10 10 10 12 15 16 16 17 18 18
12 14 15 17 17 17 17 17 17 16 15 14 13 13 12 11 10 10 9 8 8 8 8 8 8 8 8 8 7 7 7 7 9 10 8 8 10 14 16 17 17 17 17
10 12 15 18 17 17 17 16 16 15 14 13 12 12 11 10 9 8 8 7 7 7 7 6 7 7 7 7 6 6 6 7 8 8 8 8 11 15 16 17 17 16 16
8 11 15 17 17 17 16 16 15 14 13 12 12 11 10 9 8 7 7 7 6 5 5 6 6 6 6 5 5 6 6 7 8 8 8 9 11 15 16 16 16 16 16
9 11 15 18 17 17 16 15 15 14 13 12 11 10 9 8 7 7 6 6 5 5 5 5 5 5 4 4 4 5 6 7 8 7 7 7 10 15 15 15 15 15 15
9 9 14 17 17 17 16 15 14 13 12 11 10 9 8 7 6 6 6 6 5 5 5 5 4 4 4 3 3 4 5 6 7 6 6 7 10 13 15 15 15 14 14
8 8 9 13 15 15 15 14 13 12 11 10 9 8 7 6 6 6 6 6 6 6 5 5 5 5 4 3 2 2 4 5 6 5 6 7 10 12 14 15 15 14 14
6 6 7 9 11 12 12 13 12 11 10 9 7 6 5 5 4 5 5 6 7 7 7 6 6 6 5 4 3 2 3 5 5 5 5 7 10 12 13 14 14 14 14
7 5 5 7 9 10 10 10 10 9 8 7 5 4 3 2 1 1 3 6 7 8 8 7 7 7 6 5 4 2 3 4 4 3 4 8 11 12 13 14 14 14 14
9 7 5 6 7 8 8 8 9 8 9 8 8 7 6 5 4 3 3 2 4 5 6 6 7 7 5 3 3 2 2 4 4 4 5 8 11 13 13 14 14 14 14
10 8 6 6 6 6 6 8 8 9 9 8 8 8 7 7 6 6 5 5 4 2 1 1 3 3 3 3 3 2 2 3 4 5 5 7 10 13 13 15 15 15 15
8 7 6 6 5 6 7 7 7 7 7 7 7 7 7 6 6 6 5 5 5 3 2 1 0 1 1 2 3 3 3 3 4 5 6 8 10 12 14 15 15 15 15
8 7 6 7 6 6 7 6 6 6 7 7 7 7 8 6 4 4 5 6 6 5 3 2 1 1 0 0 1 2 3 3 4 4 5 7 9 12 14 14 15 16 16
7 7 6 7 7 7 5 5 6 7 8 8 7 7 7 7 5 5 5 5 6 6 5 3 3 2 1 1 1 1 1 2 3 3 4 5 7 10 13 15 15 15 16
8 7 7 8 7 7 7 6 7 8 8 6 6 7 7 8 7 6 5 4 5 6 6 6 5 4 3 2 2 1 1 1 1 2 4 5 5 7 11 14 15 15 15
8 7 7 8 8 8 6 6 7 7 7 6 6 6 7 8 8 7 5 4 6 7 6 4 3 3 3 3 2 1 1 1 1 2 4 5 6 6 9 13 15 16 16
7 7 6 7 8 8 6 6 6 6 5 5 5 5 6 7 7 8 5 5 6 6 5 4 4 3 3 3 2 1 2 2 2 2 2 4 6 7 8 10 14 16 17
6 7 7 7 7 7 6 5 4 4 2 3 3 4 5 5 6 7 5 5 5 4 4 4 4 4 2 2 2 2 2 3 2 2 2 2 3 5 7 9 10 13 16
6 7 8 8 7 7 4 4 4 3 2 1 2 3 4 4 5 5 4 4 4 4 3 3 2 4 4 3 2 3 3 3 3 4 3 3 3 2 3 5 7 9 11
8 8 8 8 8 7 5 4 3 3 2 2 1 2 3 4 4 4 4 3 3 3 4 4 3 2 3 4 2 2 3 3 3 4 4 5 5 4 3 2 4 6 8
9 9 9 9 8 7 6 4 4 4 3 2 1 1 3 4 4 4 5 4 3 3 3 3 3 3 2 3 3 2 2 0 2 3 3 5 5 4 4 5 4 3 5
10 9 8 8 7 6 7 6 6 5 4 4 3 3 2 4 4 5 5 5 4 2 2 2 2 2 2 2 2 3 1 1 1 2 3 3 5 5 6 5 5 5 4
10 9 8 7 7 6 7 7 6 4 3 2 2 2 2 2 3 5 6 5 4 3 2 2 2 2 1 1 1 1 2 2 2 1 2 4 4 3 4 4 4 5 5
8 8 8 8 7 7 7 7 7 7 6 5 4 4 3 2 2 5 6 6 5 4 3 3 3 2 2 2 1 1 1 1 1 1 1 2 3 3 4 3 3 5 6
Wind_Direction
155 158 154 147 138 132 127 124 122 122 121 121 122 124 126 128 129 129 129 127 125 121 116 110 106 105 105 105 105 104 104 106 108 113 119 123 128 130 130 129 124 122 122
145 155 156 150 144 137 131 128 126 125 125 125 126 126 128 129 130 130 129 127 125 121 117 111 108 107 106 105 103 100 100 103 107 111 115 120 126 129 129 128 127 128 126
138 152 157 153 147 141 135 131 129 128 128 128 129 129 130 131 132 132 130 129 126 122 117 114 112 110 107 105 101 97 95 97 106 106 104 108 123 130 131 130 130 130 129
138 147 156 154 149 144 138 135 133 133 132 132 133 134 135 136 137 137 136 134 131 127 123 120 118 115 110 104 97 91 90 95 106 107 102 112 126 132 133 133 132 132 131
131 143 156 153 149 146 142 139 138 137 137 139 141 142 144 145 146 146 145 144 141 138 133 128 124 120 115 106 94 83 78 92 108 109 110 114 127 134 134 134 135 134 133
127 141 152 152 151 149 145 143 142 143 144 146 148 150 152 154 156 157 159 157 154 153 148 140 135 129 122 111 94 77 69 90 104 111 117 123 133 137 137 138 138 137 138
133 141 151 152 151 149 147 147 147 148 149 150 153 157 160 164 168 171 175 174 172 171 169 163 155 147 138 121 97 75 68 94 111 115 124 131 141 143 143 141 141 140 140
136 136 148 152 151 149 149 149 150 151 152 153 157 161 165 170 178 184 189 192 194 195 195 188 182 175 165 144 108 81 73 99 114 123 136 145 152 149 147 145 145 145 144
124 124 132 144 148 149 150 151 152 152 153 155 159 164 171 181 192 201 207 212 213 213 214 213 208 203 198 190 155 105 92 101 115 131 149 159 163 157 154 153 151 151 150
116 117 121 127 134 141 149 151 151 151 152 155 160 168 178 192 206 222 228 232 232 227 224 225 226 224 219 215 211 160 112 107 119 132 150 171 174 169 165 163 161 158 158
139 124 121 123 128 135 141 146 143 140 138 132 125 124 111 74 38 307 272 250 241 238 233 233 238 238 232 226 229 210 135 132 141 149 170 184 183 181 177 173 171 168 167
161 157 141 131 130 132 132 119 111 104 101 99 97 93 85 71 47 24 355 313 261 249 242 240 248 250 240 224 234 225 164 167 173 188 201 199 195 192 188 184 181 178 177
164 165 158 143 138 132 121 116 109 104 101 97 94 94 89 75 59 45 36 23 17 10 340 249 245 255 234 211 219 216 214 202 201 207 214 214 208 204 200 195 190 188 187
159 165 158 146 137 130 121 119 117 111 105 97 95 97 91 76 60 50 45 39 38 41 52 63 63 276 262 235 224 224 226 229 220 217 226 226 218 213 211 206 199 196 197
161 162 161 150 138 131 122 123 120 116 112 109 102 93 93 88 72 61 50 46 43 50 58 60 66 79 33 299 221 220 231 233 226 218 230 239 229 221 218 215 207 203 203
164 161 158 150 142 135 127 126 130 128 124 115 106 100 97 95 88 75 58 45 39 43 56 70 80 87 64 36 7 271 241 229 223 219 235 253 247 231 223 220 218 212 208
167 160 155 151 138 133 131 135 138 135 130 122 117 110 102 97 90 83 69 52 38 48 63 66 66 69 62 48 33 11 4 291 231 227 241 252 256 244 229 223 223 222 219
156 153 158 154 140 135 134 136 138 138 137 131 126 115 104 97 93 84 72 54 47 57 61 65 55 59 47 40 30 8 357 337 303 264 248 250 250 248 239 229 226 229 228
153 150 152 143 141 137 130 127 130 135 134 132 128 118 108 100 93 86 76 60 59 61 53 63 57 61 44 18 0 26 3 345 326 309 284 266 256 250 245 241 235 237 236
152 150 150 143 139 130 117 107 103 105 110 125 133 130 120 110 102 93 81 64 66 66 55 59 67 54 45 3 5 19 4 358 2 3 341 317 283 260 249 245 244 244 242
160 160 163 152 150 141 135 137 136 155 163 163 175 158 142 128 117 102 91 74 68 70 62 66 79 55 32 5 39 13 358 11 34 31 26 25 10 335 272 251 247 245 247
179 176 170 165 164 165 156 147 145 142 152 164 168 173 179 160 146 124 116 103 89 84 66 54 68 75 30 22 66 73 17 0 4 17 27 35 25 24 15 329 260 249 248
187 187 182 180 173 169 152 123 101 84 75 93 170 207 210 191 176 152 143 127 109 99 89 67 66 87 71 26 36 105 119 189 320 337 6 19 16 25 15 8 5 315 264
196 190 183 180 176 171 161 159 155 161 176 199 194 199 205 198 193 179 164 148 131 117 112 89 80 83 100 57 24 36 68 135 103 340 335 350 2 17 7 6 8 3 344
192 186 185 180 183 178 173 172 163 166 177 165 165 192 205 214 212 195 180 168 156 152 151 131 113 102 102 115 79 53 63 58 65 106 322 333 341 340 347 348 359 7 4
190 185 183 185 196 186 180 177 178 178 174 169 187 200 208 218 228 205 189 184 179 175 176 171 157 145 145 137 134 130 134 127 126 132 240 306 316 314 327 336 357 2 4
Height
1532 1535 1538 1540 1542 1544 1545 1546 1547 1549 1550 1551 1552 1552 1553 1554 1554 1555 1556 1556 1557 1557 1557 1558 1558 1558 1558 1558 1559 1559 1559 1559 1560 1560 1561 1561 1562 1563 1564 1566 1567 1568 1570
1531 1535 1539 1541 1543 1545 1546 1548 1549 1550 1551 1552 1553 1554 1555 1555 1556 1557 1557 1558 1558 1559 1559 1559 1559 1559 1560 1560 1560 1560 1560 1561 1561 1561 1562 1563 1564 1565 1566 1568 1569 1570 1572
1532 1536 1539 1543 1545 1546 1548 1549 1551 1552 1553 1554 1555 1555 1556 1557 1558 1558 1559 1559 1560 1560 1560 1560 1561 1561 1561 1561 1562 1562 1562 1562 1563 1563 1564 1565 1566 1567 1568 1570 1571 1572 1574
1533 1537 1540 1543 1546 1547 1549 1550 1552 1553 1554 1555 1556 1557 1558 1558 1559 1559 1560 1561 1561 1561 1562 1562 1562 1562 1563 1563 1563 1564 1564 1564 1565 1565 1566 1567 1568 1569 1571 1572 1573 1574 1576
1534 1537 1541 1544 1547 1549 1550 1551 1553 1554 1555 1556 1557 1558 1559 1559 1560 1560 1561 1562 1562 1563 1563 1563 1563 1564 1564 1565 1565 1566 1566 1566 1567 1567 1568 1569 1570 1571 1572 1574 1575 1576 1578
1534 1538 1541 1544 1547 1549 1551 1552 1554 1555 1556 1557 1558 1559 1559 1560 1561 1561 1562 1562 1563 1564 1564 1564 1565 1565 1566 1566 1567 1567 1568 1568 1569 1569 1570 1571 1572 1573 1574 1575 1577 1578 1580
1534 1538 1542 1545 1547 1550 1552 1553 1555 1556 1557 1558 1559 1560 1560 1561 1561 1562 1562 1563 1564 1564 1565 1565 1566 1566 1567 1567 1568 1569 1569 1570 1570 1571 1572 1572 1573 1575 1576 1577 1578 1580 1581
1535 1539 1542 1545 1548 1550 1552 1553 1555 1556 1558 1558 1559 1560 1561 1561 1561 1562 1563 1563 1564 1565 1565 1566 1567 1567 1568 1568 1569 1570 1571 1571 1572 1572 1573 1574 1575 1576 1577 1578 1580 1581 1583
1537 1539 1542 1545 1548 1551 1552 1554 1556 1557 1558 1559 1560 1560 1561 1561 1562 1562 1563 1563 1564 1565 1565 1566 1567 1568 1568 1569 1570 1571 1571 1572 1573 1574 1574 1575 1576 1577 1578 1580 1581 1582 1584
1537 1540 1543 1545 1548 1550 1552 1554 1556 1557 1558 1559 1559 1560 1561 1561 1561 1562 1562 1563 1564 1564 1565 1566 1567 1568 1569 1569 1570 1571 1572 1573 1574 1574 1575 1576 1577 1578 1579 1581 1582 1583 1585
1537 1540 1543 1545 1548 1550 1552 1554 1556 1557 1558 1558 1559 1559 1560 1560 1561 1561 1562 1562 1563 1563 1564 1565 1566 1567 1568 1569 1570 1571 1571 1572 1574 1575 1576 1576 1577 1578 1580 1581 1583 1584 1586
1536 1539 1542 1545 1548 1550 1552 1554 1555 1557 1557 1558 1559 1559 1559 1560 1560 1560 1561 1561 1562 1562 1563 1564 1565 1566 1567 1568 1569 1570 1571 1572 1573 1574 1575 1576 1577 1578 1580 1581 1583 1584 1586
1536 1539 1542 1546 1548 1550 1552 1554 1555 1556 1557 1558 1558 1559 1559 1559 1559 1559 1559 1560 1560 1561 1562 1563 1564 1565 1565 1566 1567 1568 1569 1570 1572 1573 1574 1576 1577 1578 1579 1581 1582 1584 1586
1536 1539 1543 1546 1548 1550 1552 1554 1555 1557 1557 1558 1558 1558 1558 1557 1557 1557 1558 1558 1559 1559 1560 1561 1562 1563 1564 1565 1566 1567 1568 1569 1570 1571 1573 1574 1575 1577 1578 1579 1581 1583 1585
1536 1539 1543 1545 1548 1550 1552 1554 1555 1556 1557 1558 1558 1557 1557 1556 1556 1556 1556 1556 1557 1558 1559 1559 1560 1561 1562 1563 1564 1565 1566 1567 1568 1569 1571 1572 1574 1575 1577 1578 1580 1582 1584
1536 1539 1542 1546 1548 1550 1552 1554 1555 1556 1557 1557 1557 1557 1556 1555 1555 1554 1554 1555 1556 1556 1557 1558 1559 1559 1560 1561 1562 1562 1564 1565 1566 1567 1568 1570 1571 1573 1575 1576 1578 1580 1582
1535 1539 1542 1545 1547 1550 1552 1554 1555 1556 1557 1557 1557 1556 1555 1555 1554 1554 1554 1554 1555 1555 1556 1557 1557 1558 1559 1559 1560 1561 1562 1563 1564 1565 1566 1567 1569 1570 1572 1574 1576 1578 1580
1535 1539 1542 1544 1547 1549 1552 1553 1555 1556 1557 1557 1557 1556 1555 1555 1554 1554 1553 1554 1554 1554 1555 1556 1556 1557 1557 1558 1558 1559 1560 1561 1562 1563 1564 1565 1566 1568 1569 1571 1573 1575 1577
1535 1538 1541 1544 1546 1549 1551 1553 1555 1556 1557 1557 1557 1556 1556 1555 1554 1554 1553 1553 1553 1553 1554 1554 1555 1555 1556 1556 1557 1558 1558 1559 1560 1561 1561 1562 1563 1565 1566 1568 1570 1572 1574
1535 1538 1541 1543 1546 1548 1551 1553 1554 1556 1556 1556 1557 1556 1556 1555 1554 1554 1553 1553 1552 1553 1553 1553 1553 1554 1554 1555 1556 1556 1557 1557 1558 1558 1559 1560 1560 1561 1563 1564 1566 1568 1570
1535 1538 1540 1543 1545 1548 1550 1552 1553 1555 1555 1556 1556 1556 1556 1555 1555 1554 1553 1553 1552 1552 1552 1552 1552 1552 1553 1553 1554 1555 1555 1556 1556 1557 1557 1557 1558 1559 1560 1561 1562 1564 1566
1534 1537 1540 1542 1545 1547 1550 1552 1553 1554 1555 1556 1556 1556 1556 1556 1555 1554 1554 1553 1552 1552 1552 1552 1551 1551 1551 1551 1552 1553 1553 1555 1555 1555 1555 1556 1556 1557 1558 1558 1559 1560 1562
1533 1536 1539 1542 1545 1547 1549 1551 1552 1553 1554 1555 1555 1555 1556 1555 1555 1555 1554 1553 1553 1552 1552 1551 1551 1551 1551 1550 1551 1552 1552 1552 1553 1554 1554 1555 1555 1555 1556 1556 1557 1558 1559
1532 1535 1538 1541 1544 1546 1548 1550 1551 1552 1553 1554 1554 1555 1555 1555 1555 1554 1554 1553 1553 1552 1551 1551 1551 1550 1550 1550 1550 1551 1552 1552 1553 1553 1554 1554 1554 1554 1555 1555 1555 1555 1556
1531 1534 1537 1540 1543 1545 1547 1549 1550 1551 1552 1552 1553 1553 1553 1554 1554 1553 1553 1553 1553 1552 1551 1551 1550 1550 1550 1550 1550 1550 1550 1551 1551 1552 1552 1553 1553 1553 1553 1553 1553 1553 1554
1530 1533 1536 1539 1541 1544 1546 1547 1549 1550 1551 1551 1551 1552 1552 1552 1552 1552 1552 1552 1552 1552 1551 1550 1550 1549 1549 1549 1549 1549 1549 1549 1550 1550 1550 1550 1550 1551 1551 1551 1551 1551 1551